SCP
0 0 0 0 0 0 0 0 0 0 0 0 0 0 0 0 0 0 0 0 0 0 0 0 0 0 0 0 0 0 0 0 0 0 0 0 0 0 0 0 0 0 0
0 0 0 0 0 0 0 0 0 0 0 0 0 0 0 0 0 0 0 0 0 0 0 0 0 0 0 0 0 0 0 0 0 0 0 0 0 0 0 0 0 0 0
0 0 0 0 0 0 0 0 0 0 0 0 0 0 0 0 0 0 0 0 0 0 0 0 0 0 0 0 0 0 0 0 0 0 0 0 0 0 0 0 0 0 0
0 0 0 0 0 0 0 0 0 0 0 0 0 0 0 0 0 0 0 0 0 0 0 0 0 0 0 0 0 0 0 0 0 0 0 0 0 0 0 0 0 0 0
0 0 0 0 0 0 0 0 0 0 0 0 0 0 0 0 0 0 0 0 0 0 0 0 0 0 0 0 0 0 0 0 0 0 0 0 0 0 0 0 0 0 0
0 0 0 0 0 0 0 0 0 0 0 0 0 0 0 0 0 0 0 0 0 0 0 0 0 0 0 0 0 0 0 0 0 0 0 0 0 0 0 0 0 0 0
0 0 0 0 0 0 0 0 0 0 0 0 0 0 0 0 0 0 0 0 0 0 0 0 0 0 0 0 0 0 0 0 0 0 0 0 0 0 0 0 0 0 0
0 0 0 0 0 0 0 0 0 0 0 0 0 0 0 0 0 0 0 0 0 0 0 0 0 0 0 0 0 0 0 0 0 0 0 0 0 0 0 0 0 0 0
0 0 0 0 0 0 0 0 0 0 0 0 0 0 0 0 0 0 0 0 0 0 0 0 0 0 0 0 0 0 0 0 0 0 0 0 0 0 0 0 0 0 0
0 0 0 0 0 0 0 0 0 0 0 0 0 0 0 0 0 0 0 0 0 0 0 0 0 0 0 0 0 0 0 0 0 0 0 0 0 0 0 0 0 0 0
0 0 0 0 0 0 0 0 0 0 0 0 0 0 0 0 0 0 0 0 0 0 0 0 0 0 0 0 0 0 0 0 0 0 0 0 0 0 0 0 0 0 0
0 0 0 0 0 0 0 0 0 0 0 0 0 0 0 0 0 0 0 0 0 0 0 0 0 0 0 0 0 0 0 0 0 0 0 0 0 0 0 0 0 0 0
0 0 0 0 0 0 0 0 0 0 0 0 0 0 0 0 0 0 0 0 0 0 0 0 0 0 0 0 0 0 0 0 0 0 0 0 0 0 0 0 0 0 0
0 0 0 0 0 0 0 0 0 0 0 0 0 0 0 0 0 0 0 0 0 0 0 0 0 0 0 0 0 0 0 0 0 0 0 0 0 0 0 0 0 0 0
0 0 0 0 0 0 0 0 0 0 0 0 0 0 0 0 0 0 0 0 0 0 0 0 0 0 0 0 0 0 0 0 0 0 0 0 0 0 0 0 0 0 0
0 0 0 0 0 0 0 0 0 0 0 0 0 0 0 0 0 0 0 0 0 0 0 0 0 0 0 0 0 0 0 0 0 0 0 0 0 0 0 0 0 0 0
0 0 0 0 0 0 0 0 0 0 0 0 0 0 0 0 0 0 0 0 0 0 0 0 0 0 0 0 0 0 0 0 0 0 0 0 0 0 0 0 0 0 0
0 0 0 0 0 0 0 0 0 0 0 0 0 0 0 0 0 0 0 0 0 0 0 0 0 0 0 0 0 0 0 0 0 0 0 0 0 0 0 0 0 0 0
0 0 0 0 0 0 0 0 0 0 0 0 0 0 0 0 0 0 0 0 0 0 0 0 0 0 0 0 0 0 0 0 0 0 0 0 0 0 0 0 0 0 0
0 0 0 0 0 0 0 0 0 0 0 0 0 0 0 0 0 0 0 0 0 0 0 0 0 0 0 0 0 0 0 0 0 0 0 0 0 0 0 0 0 0 0
0 0 0 0 0 0 0 0 0 0 0 0 0 0 0 0 0 0 0 0 0 0 0 0 0 0 0 0 0 0 0 0 0 0 0 0 0 0 0 0 0 0 0
0 0 0 0 0 0 0 0 0 0 0 0 0 0 0 0 0 0 0 0 0 0 0 0 0 0 0 0 0 0 0 0 0 0 0 0 0 0 0 0 0 0 0
0 0 0 0 0 0 0 0 0 0 0 0 0 0 0 0 0 0 0 0 0 0 0 0 0 0 0 0 0 0 0 0 0 0 0 0 0 0 0 0 0 0 0
0 0 0 0 0 0 0 0 0 0 0 0 0 0 0 0 0 0 0 0 0 0 0 0 0 0 0 0 0 0 0 0 0 0 0 0 0 0 0 0 0 0 0
0 0 0 0 0 0 0 0 0 0 0 0 0 0 0 0 0 0 0 0 0 0 0 0 0 0 0 0 0 0 0 0 0 0 0 0 0 0 0 0 0 0 0
0 0 0 0 0 0 0 0 0 0 0 0 0 0 0 0 0 0 0 0 0 0 0 0 0 0 0 0 0 0 0 0 0 0 0 0 0 0 0 0 0 0 0
Wind_Speed
14 12 12 13 14 15 16 17 16 15 13 11 11 11 11 10 10 10 12 13 13 13 11 8 10 9 8 9 9 7 7 5 4 4 3 4 5 5 4 4 4 4 4
11 11 11 12 14 15 16 17 18 16 16 13 12 11 11 9 9 9 11 14 14 13 11 12 10 10 9 10 10 8 6 5 5 4 3 3 5 5 5 4 4 5 4
12 11 11 13 14 16 17 16 18 17 17 15 11 9 8 8 9 11 11 13 14 14 13 13 11 11 10 9 11 10 10 7 6 6 4 3 3 2 4 5 5 5 4
11 10 10 12 14 16 15 17 17 17 17 16 14 16 13 12 13 12 11 13 15 15 14 14 13 12 10 10 11 11 9 8 7 6 5 4 2 3 2 4 5 5 6
9 9 9 10 12 13 13 15 16 16 17 17 18 18 15 13 11 12 14 14 13 15 15 14 13 13 11 12 12 11 11 9 8 6 5 6 4 5 4 4 3 4 4
7 7 7 7 9 10 11 13 15 16 16 18 19 20 19 17 15 15 14 13 11 12 16 15 14 13 12 13 12 12 13 10 10 8 6 5 5 5 5 6 5 5 3
5 6 6 6 7 9 11 12 15 15 16 18 19 21 21 19 18 17 15 14 12 12 16 15 15 14 13 13 12 12 12 12 12 10 8 7 7 5 5 5 5 5 4
5 5 5 6 7 8 10 12 15 15 16 18 18 19 20 15 14 16 14 14 12 13 15 17 16 16 15 13 13 11 12 11 12 11 10 7 7 6 6 5 5 5 4
6 6 5 5 6 7 8 11 14 15 15 17 17 17 19 18 16 16 16 13 13 12 16 16 16 16 15 15 14 11 12 11 11 11 11 9 7 6 6 5 5 5 5
7 7 6 5 6 6 6 9 11 13 15 15 15 13 17 18 17 16 17 16 16 15 15 16 16 16 15 15 14 11 12 12 11 9 10 10 7 6 5 5 5 6 6
9 8 7 6 6 5 5 6 8 11 12 13 14 14 15 16 16 16 17 16 16 16 16 16 16 16 16 15 14 13 13 13 12 10 11 11 9 7 6 5 5 5 5
9 8 7 6 5 5 4 5 6 8 10 11 12 14 15 15 16 16 17 16 16 16 16 16 16 16 15 15 15 14 14 14 13 12 11 11 8 9 7 6 6 6 6
9 9 7 6 6 6 5 5 6 7 8 9 11 12 14 15 16 16 16 16 16 15 15 15 16 15 15 15 15 14 14 13 13 12 12 11 10 10 7 7 6 5 4
9 9 8 7 7 6 6 5 5 5 6 7 9 11 13 14 15 15 15 15 16 15 15 15 15 15 14 14 14 13 13 13 12 11 11 11 11 10 9 7 7 5 5
9 9 9 8 8 7 7 6 5 5 5 7 8 10 11 12 12 13 13 14 14 15 14 14 13 13 12 12 14 13 12 12 11 10 9 9 9 9 7 5 6 6 4
9 9 9 8 8 7 7 7 6 5 5 5 7 8 9 9 10 11 11 12 13 13 14 14 13 13 10 13 16 13 12 11 10 9 9 8 9 8 8 7 7 6 6
9 9 8 8 8 7 7 7 7 5 5 5 6 6 7 8 9 9 10 11 12 13 13 13 13 13 13 15 17 16 11 10 10 10 8 6 6 8 7 7 6 5 3
8 8 8 8 8 8 7 7 7 6 5 5 5 5 6 7 8 9 10 11 10 11 12 12 13 12 12 16 17 17 12 10 9 9 9 8 8 7 8 7 5 4 3
8 8 8 8 8 7 7 7 7 6 5 5 5 5 6 7 7 9 10 10 10 10 11 11 12 12 12 16 17 16 10 8 8 8 8 8 8 11 11 8 7 5 3
8 8 8 8 7 7 7 6 7 6 6 6 6 6 6 7 8 9 9 9 9 9 9 9 10 11 11 15 18 17 8 8 7 6 7 9 9 13 13 9 8 6 5
9 8 8 8 7 7 7 7 7 7 7 6 6 6 6 7 8 7 7 8 8 8 9 9 8 9 10 14 18 17 9 8 8 7 6 6 12 13 13 9 6 7 6
9 8 8 8 7 7 7 7 7 7 7 6 6 6 6 5 5 7 7 7 8 9 9 8 8 6 8 10 14 17 13 11 8 7 6 7 13 13 12 8 8 11 8
9 8 8 8 8 7 7 8 8 8 7 6 6 5 5 5 6 6 7 7 8 7 7 7 7 6 6 8 13 15 14 12 7 6 9 12 14 13 9 10 12 9 5
8 8 8 8 8 8 8 7 8 7 6 6 6 4 4 5 5 5 5 6 7 7 7 7 7 7 6 7 8 8 9 10 8 8 11 13 12 9 9 9 7 4 3
8 7 8 9 9 9 9 8 7 6 6 6 5 4 4 4 5 4 4 5 6 6 7 7 7 8 8 8 11 9 8 8 8 9 7 6 6 6 5 4 4 4 4
8 8 8 9 9 9 9 8 6 6 5 5 4 3 3 3 3 3 2 2 4 5 6 6 7 5 7 12 13 13 13 15 16 10 7 7 6 6 6 6 5 4 4
Wind_Direction
242 231 224 216 210 206 202 198 197 196 189 185 181 181 184 184 186 187 188 189 190 189 191 189 188 190 192 192 193 190 190 193 191 201 213 217 225 231 226 231 239 234 235
238 229 221 213 209 207 204 201 199 196 193 193 188 188 186 187 187 187 192 193 193 193 192 193 190 193 195 195 195 192 193 185 192 208 216 223 207 208 221 227 235 240 229
235 227 220 215 211 209 206 202 199 199 197 194 186 180 180 181 188 193 194 197 195 195 195 196 194 195 197 197 197 195 196 192 194 211 221 229 231 198 193 213 225 230 233
235 230 221 218 217 213 206 203 199 201 199 195 190 186 189 192 195 192 193 194 196 197 199 198 198 197 200 201 200 200 201 200 197 201 227 251 279 253 224 199 217 230 242
238 236 225 223 223 216 207 203 201 201 200 197 194 193 199 202 195 191 194 195 196 199 200 200 201 201 202 204 202 200 202 204 206 200 198 215 230 246 256 253 239 234 235
238 236 231 229 230 218 209 204 202 203 201 200 198 198 201 200 195 194 193 194 195 198 201 201 203 204 204 205 204 203 205 206 210 208 205 205 210 215 226 248 259 264 253
252 242 239 229 232 221 212 207 205 205 203 202 203 202 203 202 201 197 197 194 195 197 200 199 204 205 206 205 203 205 206 208 210 212 213 217 225 224 227 244 260 268 266
288 267 253 238 233 227 215 210 208 208 206 205 206 205 203 203 204 202 199 199 199 200 199 200 204 205 204 203 203 205 207 209 211 216 216 217 222 222 224 234 250 264 261
320 299 278 263 253 240 224 217 212 210 208 208 207 208 204 204 205 203 203 203 204 201 200 199 202 204 204 203 202 207 207 208 211 214 216 218 219 218 223 227 230 245 265
328 321 306 289 272 255 243 229 220 215 212 209 207 208 207 206 205 203 204 204 203 201 199 199 201 202 202 202 202 206 208 207 209 209 212 214 216 215 216 220 224 231 247
329 323 317 306 290 273 250 236 231 222 216 213 209 209 209 207 206 206 207 205 204 201 201 200 200 200 201 200 202 205 204 207 208 205 211 214 213 211 211 214 218 224 229
330 325 319 317 311 295 268 249 240 234 225 216 212 211 208 207 207 207 207 206 205 203 201 200 200 200 200 199 201 203 204 206 208 207 209 213 209 212 211 211 216 220 223
335 333 329 324 318 309 297 274 254 245 235 224 217 215 209 207 207 208 207 204 203 203 200 200 200 199 199 199 201 202 204 207 209 207 207 209 207 212 211 211 214 216 217
332 333 331 328 324 315 303 291 282 266 248 230 221 219 213 209 209 208 206 204 200 199 199 200 201 199 198 198 198 200 202 205 207 207 207 207 207 211 210 208 211 207 204
328 331 328 326 325 324 314 304 297 290 270 239 226 224 219 212 210 209 205 202 200 198 196 197 199 197 196 197 195 196 198 199 201 202 204 205 203 204 202 195 197 192 195
321 324 323 320 321 322 320 310 301 295 280 253 235 228 220 212 207 206 205 199 198 196 193 194 196 196 196 188 187 190 191 194 194 195 198 197 195 192 187 184 182 184 191
316 319 319 317 315 315 313 307 298 290 275 260 245 234 223 213 209 203 201 198 196 193 193 194 194 196 195 182 180 182 186 189 192 192 191 186 181 180 182 174 166 170 175
311 312 314 315 312 307 307 304 297 286 273 261 253 240 225 215 208 203 202 199 195 194 193 194 194 194 191 179 178 176 186 188 190 190 187 182 180 178 170 162 159 164 170
306 307 310 310 309 307 306 301 293 286 275 261 255 245 228 216 207 203 202 199 193 192 193 192 190 192 187 176 174 172 185 186 186 184 181 178 179 168 159 157 156 150 133
304 307 308 308 308 311 311 298 289 283 279 276 266 251 230 219 210 206 202 197 194 192 187 189 189 189 186 175 172 173 178 177 174 174 174 177 175 165 163 169 166 164 161
304 307 305 305 307 310 311 300 290 283 284 285 276 255 232 223 214 205 200 194 188 185 184 181 184 187 183 173 173 174 178 173 170 170 172 173 168 166 166 168 171 164 153
304 307 304 304 308 308 307 303 296 294 290 282 273 253 233 220 211 200 196 190 183 182 180 176 176 180 176 174 176 176 176 168 169 170 168 163 160 160 159 160 150 143 141
299 302 302 302 305 306 303 299 301 303 294 282 269 253 236 216 205 197 191 185 182 181 177 176 176 175 172 169 167 169 168 162 158 156 154 150 150 149 151 150 147 146 148
297 299 299 299 302 306 301 296 300 301 290 278 267 247 226 211 201 193 189 186 185 180 176 178 175 170 169 167 161 159 156 149 142 138 140 138 138 137 139 144 149 155 157
290 292 290 294 297 302 299 298 300 299 289 278 264 244 224 209 202 196 192 194 197 189 182 182 174 172 178 173 160 158 159 157 150 139 134 138 142 148 148 145 144 145 147
283 286 285 287 292 296 295 296 299 293 286 278 268 243 217 204 196 183 167 156 175 164 170 171 169 169 160 155 157 154 152 149 147 143 151 156 159 161 161 160 155 154 159